TimeEST,TemperatureF,Dew PointF,Humidity,Sea Level PressureIn,VisibilityMPH,Wind Direction,Wind SpeedMPH,Gust SpeedMPH,PrecipitationIn,Events,Conditions,WindDirDegrees,DateUTC
12:15 AM,41.4,37.4,86,29.61,10.0,West,21.9,33.4,N/A,Rain,Light Rain,270,2014-01-06 05:15:00
12:35 AM,38.8,36.0,89,29.64,4.0,West,19.6,34.5,N/A,Rain,Light Rain,270,2014-01-06 05:35:00
12:55 AM,33.6,32.0,94,29.69,1.5,WNW,16.1,31.1,N/A,Snow,Light Snow,290,2014-01-06 05:55:00
1:15 AM,32.9,32.0,96,29.71,1.2,West,11.5,20.7,N/A,Snow,Light Snow,280,2014-01-06 06:15:00
1:35 AM,32.9,31.8,96,29.72,3.0,West,18.4,25.3,N/A,Snow,Light Snow,260,2014-01-06 06:35:00
1:55 AM,32.0,31.1,96,29.73,1.5,West,15.0,25.3,N/A,Snow,Light Snow,270,2014-01-06 06:55:00
2:15 AM,31.5,30.9,98,29.76,0.5,WNW,15.0,24.2,N/A,Snow,Snow,290,2014-01-06 07:15:00
2:35 AM,30.6,29.1,94,29.78,1.2,West,15.0,23.0,N/A,Snow,Light Snow,280,2014-01-06 07:35:00
2:55 AM,29.8,28.8,96,29.80,1.8,WNW,9.2,18.4,N/A,Snow,Light Snow,300,2014-01-06 07:55:00
3:15 AM,28.9,27.3,94,29.82,3.0,WNW,9.2,19.6,N/A,Snow,Light Snow,290,2014-01-06 08:15:00
3:35 AM,27.9,26.1,93,29.84,10.0,WNW,11.5,17.3,N/A,,Overcast,290,2014-01-06 08:35:00
3:55 AM,27.1,24.8,91,29.85,10.0,West,9.2,18.4,N/A,,Overcast,280,2014-01-06 08:55:00
4:15 AM,27.1,25.0,92,29.86,10.0,WNW,9.2,23.0,N/A,,Overcast,290,2014-01-06 09:15:00
4:35 AM,26.6,24.6,92,29.87,5.0,NW,8.1,16.1,N/A,Snow,Light Snow,310,2014-01-06 09:35:00
4:55 AM,25.7,23.7,92,29.88,2.0,WNW,10.4,19.6,N/A,Snow,Light Snow,300,2014-01-06 09:55:00
5:15 AM,23.9,20.5,87,29.91,3.0,WNW,12.7,20.7,N/A,Snow,Light Snow,290,2014-01-06 10:15:00
5:35 AM,23.2,19.8,87,29.92,4.0,WNW,8.1,18.4,N/A,Snow,Light Snow,300,2014-01-06 10:35:00
5:55 AM,22.3,18.3,85,29.93,5.0,WNW,12.7,24.2,N/A,Snow,Light Snow,290,2014-01-06 10:55:00
6:15 AM,21.2,16.7,83,29.94,5.0,WNW,11.5,20.7,N/A,Snow,Light Snow,300,2014-01-06 11:15:00
6:35 AM,20.3,16.3,85,29.95,5.0,WNW,10.4,18.4,N/A,Snow,Light Snow,290,2014-01-06 11:35:00
6:55 AM,19.8,15.1,82,29.96,5.0,WNW,11.5,19.6,N/A,Snow,Light Snow,290,2014-01-06 11:55:00
7:15 AM,19.4,15.6,85,29.97,5.0,WNW,6.9,-,N/A,Snow,Light Snow,300,2014-01-06 12:15:00
7:35 AM,19.4,15.8,86,29.98,2.0,West,9.2,-,N/A,Snow,Light Snow,280,2014-01-06 12:35:00
7:55 AM,18.5,14.9,86,29.99,2.0,WNW,13.8,19.6,N/A,Snow,Light Snow,290,2014-01-06 12:55:00
8:15 AM,17.6,13.6,84,30.00,2.5,WNW,9.2,17.3,N/A,Snow,Light Snow,300,2014-01-06 13:15:00
8:35 AM,17.2,12.6,82,30.01,4.0,WNW,10.4,-,N/A,Snow,Light Snow,290,2014-01-06 13:35:00
8:55 AM,16.7,12.7,84,30.02,2.5,WNW,6.9,16.1,N/A,Snow,Light Snow,290,2014-01-06 13:55:00
9:15 AM,15.6,11.8,85,30.04,1.2,West,12.7,20.7,N/A,Snow,Light Snow,280,2014-01-06 14:15:00
9:35 AM,15.3,10.6,82,30.04,2.5,West,10.4,17.3,N/A,Snow,Light Snow,270,2014-01-06 14:35:00
9:55 AM,15.3,10.4,81,30.05,3.0,WNW,8.1,-,N/A,Snow,Light Snow,300,2014-01-06 14:55:00
10:15 AM,14.2,10.6,86,30.06,1.0,WNW,6.9,17.3,N/A,Snow,Light Snow,300,2014-01-06 15:15:00
10:35 AM,13.1,8.2,81,30.06,1.5,WNW,13.8,21.9,N/A,Snow,Light Snow,290,2014-01-06 15:35:00
10:55 AM,11.8,6.4,79,30.08,3.0,NW,8.1,17.3,N/A,Snow,Light Snow,320,2014-01-06 15:55:00
11:15 AM,10.4,4.3,76,30.09,7.0,WNW,10.4,18.4,N/A,,Overcast,290,2014-01-06 16:15:00
11:35 AM,10.2,2.8,72,30.08,10.0,WNW,10.4,23.0,N/A,,Overcast,290,2014-01-06 16:35:00
11:55 AM,10.4,3.0,72,30.07,7.0,NW,12.7,23.0,N/A,,Overcast,310,2014-01-06 16:55:00
12:15 PM,9.5,3.0,75,30.07,5.0,WNW,12.7,20.7,N/A,,Overcast,300,2014-01-06 17:15:00
12:35 PM,9.5,2.1,72,30.08,5.0,NW,6.9,18.4,N/A,,Overcast,310,2014-01-06 17:35:00
12:55 PM,7.5,-1.1,68,30.08,7.0,NW,12.7,19.6,N/A,,Overcast,310,2014-01-06 17:55:00
1:15 PM,7.7,0.9,74,30.09,2.5,WNW,8.1,16.1,N/A,,Overcast,300,2014-01-06 18:15:00
1:35 PM,6.8,-0.9,71,30.10,2.0,WNW,13.8,20.7,N/A,,Overcast,290,2014-01-06 18:35:00
1:55 PM,6.8,-1.1,70,30.11,4.0,West,12.7,21.9,N/A,,Overcast,280,2014-01-06 18:55:00
2:15 PM,6.8,-4.0,61,30.12,10.0,West,11.5,16.1,N/A,,Mostly Cloudy,280,2014-01-06 19:15:00
2:35 PM,7.2,-4.0,60,30.13,10.0,West,12.7,21.9,N/A,,Mostly Cloudy,270,2014-01-06 19:35:00
2:55 PM,6.3,-3.5,64,30.14,10.0,West,13.8,24.2,N/A,,Mostly Cloudy,270,2014-01-06 19:55:00
3:15 PM,6.4,-2.7,66,30.15,5.0,West,9.2,18.4,N/A,,Overcast,280,2014-01-06 20:15:00
3:35 PM,6.1,-6.7,56,30.16,10.0,WNW,12.7,21.9,N/A,,Overcast,290,2014-01-06 20:35:00
3:55 PM,5.7,-6.7,57,30.17,10.0,West,13.8,20.7,N/A,,Overcast,280,2014-01-06 20:55:00
4:15 PM,5.0,-6.7,59,30.17,10.0,WNW,12.7,18.4,N/A,,Overcast,300,2014-01-06 21:15:00
4:35 PM,4.8,-5.1,64,30.18,4.0,West,15.0,24.2,N/A,,Overcast,270,2014-01-06 21:35:00
4:55 PM,4.3,-7.4,58,30.20,10.0,West,9.2,16.1,N/A,,Overcast,280,2014-01-06 21:55:00
5:15 PM,3.2,-5.3,68,30.20,10.0,West,9.2,-,N/A,,Mostly Cloudy,260,2014-01-06 22:15:00
5:35 PM,3.0,-6.5,65,30.20,10.0,West,6.9,16.1,N/A,,Mostly Cloudy,280,2014-01-06 22:35:00
5:55 PM,2.8,-5.3,69,30.21,7.0,WNW,8.1,-,N/A,,Overcast,290,2014-01-06 22:55:00
6:15 PM,2.8,-4.5,71,30.22,10.0,West,8.1,-,N/A,,Overcast,280,2014-01-06 23:15:00
6:35 PM,2.1,-8.0,63,30.23,10.0,West,13.8,24.2,N/A,,Mostly Cloudy,280,2014-01-06 23:35:00
6:55 PM,1.4,-10.3,58,30.24,10.0,West,12.7,19.6,N/A,,Scattered Clouds,260,2014-01-06 23:55:00
7:15 PM,1.0,-10.3,59,30.25,10.0,West,15.0,21.9,N/A,,Scattered Clouds,270,2014-01-07 00:15:00
7:35 PM,0.9,-10.5,59,30.27,10.0,West,8.1,19.6,N/A,,Scattered Clouds,270,2014-01-07 00:35:00
7:55 PM,0.5,-11.2,58,30.27,10.0,West,9.2,18.4,N/A,,Scattered Clouds,280,2014-01-07 00:55:00
8:15 PM,0.3,-11.2,58,30.29,10.0,West,10.4,21.9,N/A,,Scattered Clouds,280,2014-01-07 01:15:00
8:35 PM,0.1,-11.2,59,30.29,10.0,WNW,12.7,17.3,N/A,,Scattered Clouds,290,2014-01-07 01:35:00
8:55 PM,-0.0,-10.5,61,30.29,10.0,West,10.4,20.7,N/A,,Scattered Clouds,260,2014-01-07 01:55:00
9:15 PM,-0.2,-10.3,62,30.30,10.0,West,10.4,18.4,N/A,,Scattered Clouds,280,2014-01-07 02:15:00
9:35 PM,-0.2,-9.8,64,30.30,10.0,West,5.8,26.5,N/A,,Mostly Cloudy,280,2014-01-07 02:35:00
9:55 PM,-0.4,-9.4,66,30.31,10.0,West,5.8,-,N/A,,Mostly Cloudy,270,2014-01-07 02:55:00
10:15 PM,-0.4,-9.8,65,30.31,10.0,West,8.1,20.7,N/A,,Scattered Clouds,280,2014-01-07 03:15:00
10:35 PM,-0.4,-9.9,64,30.31,10.0,WNW,13.8,21.9,N/A,,Overcast,290,2014-01-07 03:35:00
10:55 PM,-0.6,-9.4,66,30.31,10.0,WSW,10.4,16.1,N/A,,Overcast,250,2014-01-07 03:55:00
11:15 PM,-0.9,-8.5,70,30.32,7.0,WNW,6.9,16.1,N/A,,Overcast,290,2014-01-07 04:15:00
11:35 PM,-0.9,-10.3,65,30.32,10.0,WNW,5.8,18.4,N/A,,Mostly Cloudy,290,2014-01-07 04:35:00
11:55 PM,-1.3,-9.6,68,30.32,10.0,West,5.8,-,N/A,,Mostly Cloudy,280,2014-01-07 04:55:00